User: anonymous
Location: Unspecified
(0.0000°N, 0.0000°E)
Time: 17:58:29
(UTC+02:00)
Language:

Cosmos 1515 Rocket - Orbit

View from above orbital plane
View from above orbital plane
View from above satellite
View from above satellite

Ground track
Ground track

The orbit data is extracted from the following two-line orbital elements,

1 14552U 83122B   14262.16061168  .00000327  00000-0  37418-4 0  9592
2 14552 082.5223 294.4425 0016828 217.5467 201.6683 14.82889767660657
Epoch (UTC): 19 September 2014 03:51:16
Eccentricity: 0.0016828
inclination: 82.5223°
perigee height: 608 km
apogee height: 632 km
right ascension of ascending node: 294.4425°
argument of perigee: 217.5467°
revolutions per day: 14.82889767
mean anomaly at epoch: 201.6683°
orbit number at epoch: 66065

The dashed part of the orbit path shows where the satellite is in the earth's shadow,  

DLR